DateRun                       ,Max30MinCOAvg       ,Max15MinCOAvg       ,Max3MinCOAvg        
------------------------------,--------------------,--------------------,--------------------
2021-01-01 00:30:01           ,                 .04,                 .09,              2.1740
2021-01-01 01:30:00           ,                 .06,                 .12,              3.4161
2021-01-01 02:30:00           ,                 .04,                 .08,              3.2661
2021-01-01 03:30:00           ,                 .04,                 .07,              1.4116
2021-01-01 04:30:01           ,                 .03,                 .07,              1.1853
2021-01-01 05:30:00           ,                 .04,                 .07,              1.6802
2021-01-01 06:30:00           ,                 .04,                 .07,              4.4737
2021-01-01 07:30:00           ,                 .04,                 .08,              2.0432
2021-01-01 08:30:01           ,                 .04,                 .07,              1.4105
2021-01-01 09:30:00           ,                 .03,                 .06,              1.8996
2021-01-01 10:30:00           ,                 .08,                 .16,              3.4161
2021-01-01 11:30:00           ,                 .11,                 .22,              7.2671
2021-01-01 12:30:01           ,                 .08,                 .16,              3.3323
2021-01-01 13:30:00           ,                 .06,                 .11,              3.7070
2021-01-01 14:30:00           ,                 .08,                 .15,              7.8685
2021-01-01 15:30:00           ,                 .11,                 .22,              4.1547
2021-01-01 16:30:00           ,                 .07,                 .14,              4.1181
2021-01-01 17:30:00           ,                 .05,                 .10,              2.9090
2021-01-01 18:30:00           ,                 .09,                 .17,              3.9518
2021-01-01 19:30:00           ,                 .05,                 .10,              4.1187
2021-01-01 20:30:00           ,                 .06,                 .11,              3.0812
2021-01-01 21:30:01           ,                 .06,                 .11,              3.4145
2021-01-01 22:30:00           ,                 .04,                 .09,              1.9775
2021-01-01 23:30:00           ,                 .04,                 .07,              1.1064
2021-01-02 00:30:00           ,                 .04,                 .07,              1.1064
2021-01-02 01:30:00           ,                 .05,                 .09,              1.1307
2021-01-02 02:30:01           ,                 .04,                 .07,              1.2680
2021-01-02 03:30:00           ,                 .04,                 .07,              1.4105
2021-01-02 04:30:00           ,                 .04,                 .08,              1.2992
2021-01-02 05:30:00           ,                 .04,                 .09,              2.8433
2021-01-02 06:30:00           ,                 .03,                 .07,              1.8365
2021-01-02 07:30:00           ,                 .10,                 .21,              3.4966
2021-01-02 08:30:00           ,                 .09,                 .18,              3.4256
2021-01-02 09:30:00           ,                 .10,                 .19,              2.9646
2021-01-02 10:30:01           ,                 .10,                 .19,              6.1009
2021-01-02 11:30:00           ,                 .07,                 .15,              3.9544
2021-01-02 12:30:00           ,                 .08,                 .16,              5.6076
2021-01-02 13:30:00           ,                 .06,                 .13,              3.2052
2021-01-02 14:30:00           ,                 .08,                 .17,              5.8423
2021-01-02 15:30:01           ,                 .12,                 .24,              3.9528
2021-01-02 16:30:00           ,                 .11,                 .22,              5.8842
2021-01-02 17:30:00           ,                 .08,                 .16,              4.2432
2021-01-02 18:30:00           ,                 .07,                 .14,              6.0500
2021-01-02 19:30:00           ,                 .14,                 .27,              5.9080
2021-01-02 20:30:00           ,                 .06,                 .12,              5.3469
2021-01-02 21:30:00           ,                 .15,                 .30,              5.3416
2021-01-02 22:30:00           ,                 .03,                 .06,              1.4709
2021-01-02 23:30:00           ,                 .08,                 .17,              4.1181
2021-01-03 00:30:00           ,                 .04,                 .08,              2.0803
2021-01-03 01:30:00           ,                 .05,                 .10,              3.4155
2021-01-03 02:30:00           ,                 .06,                 .11,              4.2140
2021-01-03 03:30:00           ,                 .06,                 .11,              1.8879
2021-01-03 04:30:00           ,                 .04,                 .07,              1.5700
2021-01-03 05:30:00           ,                 .04,                 .07,              1.5954
2021-01-03 06:30:00           ,                 .04,                 .09,              1.8736
2021-01-03 07:30:00           ,                 .05,                 .11,              1.9950
2021-01-03 08:30:00           ,                 .05,                 .10,              2.9328
2021-01-03 09:30:00           ,                 .05,                 .10,              2.1608
2021-01-03 10:30:00           ,                 .08,                 .16,              2.1046
2021-01-03 11:30:00           ,                 .06,                 .12,              5.1742
2021-01-03 12:30:00           ,                 .09,                 .18,              4.9882
2021-01-03 13:30:00           ,                 .05,                 .11,              3.9597
2021-01-03 14:30:00           ,                 .12,                 .25,              8.4191
2021-01-03 15:30:00           ,                 .11,                 .22,              5.9308
2021-01-03 16:30:00           ,                 .15,                 .29,              4.7540
2021-01-03 17:30:00           ,                 .07,                 .15,              5.6749
2021-01-03 18:30:00           ,                 .11,                 .21,              5.1556
2021-01-03 19:30:00           ,                 .06,                 .11,              4.1134
2021-01-03 20:30:00           ,                 .10,                 .19,              4.3354
2021-01-03 21:30:00           ,                 .05,                 .10,              3.1066
2021-01-03 22:30:00           ,                 .04,                 .08,              2.8719
2021-01-03 23:30:00           ,                 .05,                 .09,              2.0601
2021-01-04 00:30:00           ,                 .05,                 .09,              2.3600
2021-01-04 01:30:00           ,                 .05,                 .10,              1.6919
2021-01-04 02:30:01           ,                 .05,                 .10,              1.7772
2021-01-04 03:30:00           ,                 .04,                 .08,              1.0735
2021-01-04 04:30:00           ,                 .04,                 .07,              1.0735
2021-01-04 05:30:00           ,                 .06,                 .13,              2.0607
2021-01-04 06:30:00           ,                 .05,                 .10,              3.4341
2021-01-04 07:30:00           ,                 .12,                 .24,              4.7662
2021-01-04 08:30:00           ,                 .10,                 .20,              5.8990
2021-01-04 09:30:00           ,                 .08,                 .17,              4.5611
2021-01-04 10:30:00           ,                 .12,                 .25,              6.0993
2021-01-04 11:30:00           ,                 .12,                 .24,              7.0822
2021-01-04 12:30:00           ,                 .08,                 .15,              3.6820
2021-01-04 13:30:00           ,                 .14,                 .29,              7.1723
2021-01-04 14:30:00           ,                 .12,                 .25,              5.9419
2021-01-04 15:30:01           ,                 .09,                 .17,              5.6849
2021-01-04 16:30:00           ,                 .10,                 .21,              8.1774
2021-01-04 17:30:00           ,                 .13,                 .25,              9.3712
2021-01-04 18:30:00           ,                 .04,                 .08,              3.4934
2021-01-04 19:30:00           ,                 .06,                 .11,              4.0275
2021-01-04 20:30:00           ,                 .05,                 .10,              2.4135
2021-01-04 21:30:00           ,                 .04,                 .07,              1.7152
2021-01-04 22:30:00           ,                 .04,                 .08,              1.5568
2021-01-04 23:30:00           ,                 .04,                 .08,              1.6580
2021-01-05 00:30:00           ,                 .04,                 .08,              1.4116
2021-01-05 01:30:01           ,                 .04,                 .07,              1.0799
2021-01-05 02:30:00           ,                 .04,                 .07,              1.4110
2021-01-05 03:30:00           ,                 .05,                 .10,              1.9128
2021-01-05 04:30:00           ,                 .04,                 .08,              1.9139
2021-01-05 05:30:00           ,                 .06,                 .13,              2.1380
2021-01-05 06:30:00           ,                 .10,                 .19,              4.3682
2021-01-05 07:30:00           ,                 .17,                 .35,              5.9276
2021-01-05 08:30:00           ,                 .11,                 .23,              7.6486
2021-01-05 09:30:00           ,                 .10,                 .19,              7.1945
2021-01-05 10:30:00           ,                 .11,                 .21,              6.5412
2021-01-05 11:30:01           ,                 .12,                 .24,              7.1956
2021-01-05 12:30:00           ,                 .08,                 .17,              6.1565
2021-01-05 13:30:00           ,                 .13,                 .26,              5.8201
2021-01-05 14:30:00           ,                 .08,                 .17,              7.5877
2021-01-05 15:30:00           ,                 .14,                 .27,              6.0325
2021-01-05 16:30:01           ,                 .21,                 .41,              7.8124
2021-01-05 17:30:00           ,                 .08,                 .16,              4.9818
2021-01-05 18:30:00           ,                 .07,                 .15,              5.3458
2021-01-05 19:30:00           ,                 .10,                 .20,              5.9144
2021-01-05 20:30:00           ,                 .08,                 .15,              4.2209
2021-01-05 21:30:00           ,                 .05,                 .09,              2.0686
2021-01-05 22:30:00           ,                 .05,                 .09,              3.0897
2021-01-05 23:30:00           ,                 .06,                 .12,              2.0792
2021-01-06 00:30:00           ,                 .08,                 .16,              5.4280
2021-01-06 01:30:00           ,                 .04,                 .08,              1.5928
2021-01-06 02:30:00           ,                 .05,                 .09,              1.7618
2021-01-06 03:30:00           ,                 .04,                 .09,              1.0709
2021-01-06 04:30:00           ,                 .05,                 .10,              1.9282
2021-01-06 05:30:00           ,                 .06,                 .12,              1.9028
2021-01-06 06:30:00           ,                 .08,                 .16,              4.9601
2021-01-06 07:30:00           ,                 .14,                 .29,              5.9197
2021-01-06 08:30:00           ,                 .08,                 .16,              4.4313
2021-01-06 09:30:00           ,                 .08,                 .16,              5.3691
2021-01-06 10:30:01           ,                 .10,                 .20,              4.9808
2021-01-06 11:30:00           ,                 .09,                 .19,              7.1384
2021-01-06 12:30:00           ,                 .07,                 .14,              3.9682
2021-01-06 13:30:00           ,                 .10,                 .20,              7.3630
2021-01-06 14:30:00           ,                 .06,                 .11,              3.4145
2021-01-06 15:30:00           ,                 .13,                 .26,              7.1347
2021-01-06 16:30:00           ,                 .07,                 .13,              8.1377
2021-01-06 17:30:00           ,                 .09,                 .18,              7.8812
2021-01-06 18:30:00           ,                 .04,                 .08,              4.7206
2021-01-06 19:30:00           ,                 .05,                 .10,              3.8723
2021-01-06 20:30:01           ,                 .10,                 .20,              5.3427
2021-01-06 21:30:00           ,                 .13,                 .27,              3.0939
2021-01-06 22:30:00           ,                 .09,                 .18,              6.7177
2021-01-06 23:30:00           ,                 .08,                 .15,              3.1734
2021-01-07 00:30:01           ,                 .04,                 .09,              3.0891
2021-01-07 01:30:00           ,                 .05,                 .10,              1.4534
2021-01-07 02:30:00           ,                 .05,                 .10,              1.9780
2021-01-07 03:30:00           ,                 .03,                 .06,              1.3883
2021-01-07 04:30:01           ,                 .03,                 .06,              1.4105
2021-01-07 05:30:00           ,                 .03,                 .06,              6.8618
2021-01-07 06:30:00           ,                 .08,                 .16,              4.7497
2021-01-07 07:30:00           ,                 .08,                 .16,              5.9176
2021-01-07 08:30:00           ,                 .08,                 .16,              5.9700
2021-01-07 09:30:00           ,                 .13,                 .26,              5.6839
2021-01-07 10:30:00           ,                 .08,                 .16,              4.5452
2021-01-07 11:30:00           ,                 .12,                 .25,              6.9137
2021-01-07 12:30:00           ,                 .11,                 .22,              5.0708
2021-01-07 13:30:01           ,                 .09,                 .18,              6.2397
2021-01-07 14:30:00           ,                 .10,                 .20,              6.3457
2021-01-07 15:30:00           ,                 .06,                 .12,              5.6913
2021-01-07 16:30:00           ,                 .08,                 .16,              5.6516
2021-01-07 17:30:01           ,                 .13,                 .26,              8.1700
2021-01-07 18:30:00           ,                 .08,                 .16,              5.7035
2021-01-07 19:30:00           ,                 .06,                 .11,              3.9507
2021-01-07 20:30:00           ,                 .07,                 .15,              4.1203
2021-01-07 21:30:01           ,                 .05,                 .11,              4.1547
2021-01-07 22:30:00           ,                 .08,                 .17,              4.1208
2021-01-07 23:30:00           ,                 .05,                 .10,              2.4061
2021-01-08 00:30:00           ,                 .03,                 .06,              1.5854
2021-01-08 01:30:00           ,                 .03,                 .07,              1.5875
2021-01-08 02:30:00           ,                 .03,                 .06,              2.0607
2021-01-08 03:30:00           ,                 .04,                 .08,              1.5848
2021-01-08 04:30:00           ,                 .03,                 .06,              1.2092
2021-01-08 05:30:01           ,                 .03,                 .06,              2.0967
2021-01-08 06:30:00           ,                 .06,                 .12,              4.3545
2021-01-08 07:30:00           ,                 .07,                 .14,              6.0023
2021-01-08 08:30:00           ,                 .09,                 .18,              4.8668
2021-01-08 09:30:00           ,                 .07,                 .15,              4.9855
2021-01-08 10:30:00           ,                 .10,                 .20,              5.8932
2021-01-08 11:30:00           ,                 .09,                 .18,              5.9154
2021-01-08 12:30:00           ,                 .09,                 .19,              6.8358
2021-01-08 13:30:00           ,                 .08,                 .17,              4.9882
2021-01-08 14:30:00           ,                 .12,                 .23,              7.1384
2021-01-08 15:30:00           ,                 .14,                 .28,              9.7252
2021-01-08 16:30:00           ,                 .09,                 .18,              6.4400
2021-01-08 17:30:00           ,                 .08,                 .16,              5.3416
2021-01-08 18:30:00           ,                 .07,                 .14,              4.9961
2021-01-08 19:30:00           ,                 .13,                 .26,              6.7733
2021-01-08 20:30:00           ,                 .07,                 .15,              6.9837
2021-01-08 21:30:00           ,                 .05,                 .10,              2.9938
2021-01-08 22:30:00           ,                 .21,                 .41,              5.4004
2021-01-08 23:30:01           ,                 .05,                 .10,              2.8003
2021-01-09 00:30:00           ,                 .05,                 .10,              2.0458
2021-01-09 01:30:00           ,                 .06,                 .12,              2.4125
2021-01-09 02:30:00           ,                 .04,                 .09,              1.3830
2021-01-09 03:30:00           ,                 .04,                 .08,              1.0873
2021-01-09 04:30:00           ,                 .07,                 .13,              3.3795
2021-01-09 05:30:00           ,                 .07,                 .14,              1.7888
2021-01-09 06:30:00           ,                 .07,                 .13,              2.0140
2021-01-09 07:30:00           ,                 .03,                 .07,              2.1062
2021-01-09 08:30:00           ,                 .10,                 .20,              4.9882
2021-01-09 09:30:01           ,                 .10,                 .20,              5.6950
2021-01-09 10:30:00           ,                 .12,                 .23,              5.9218
2021-01-09 11:30:00           ,                 .12,                 .23,              8.1541
2021-01-09 12:30:00           ,                 .14,                 .27,              9.1752
2021-01-09 13:30:00           ,                 .10,                 .21,              8.6390
2021-01-09 14:30:00           ,                 .09,                 .18,              6.2159
2021-01-09 15:30:00           ,                 .09,                 .19,              8.5383
2021-01-09 16:30:00           ,                 .09,                 .19,              7.9009
2021-01-09 17:30:00           ,                 .15,                 .31,              7.1553
2021-01-09 18:30:00           ,                 .12,                 .24,              5.6283
2021-01-09 19:30:00           ,                 .10,                 .20,              5.1180
2021-01-09 20:30:00           ,                 .09,                 .18,              5.5392
2021-01-09 21:30:00           ,                 .08,                 .16,              5.1487
2021-01-09 22:30:00           ,                 .20,                 .41,              9.4311
2021-01-09 23:30:00           ,                 .06,                 .12,              3.1766
2021-01-10 00:30:00           ,                 .03,                 .07,              9.1238
2021-01-10 01:30:00           ,                 .05,                 .10,              5.5127
2021-01-10 02:30:00           ,                 .05,                 .09,              3.3000
2021-01-10 03:30:00           ,                 .04,                 .08,              1.7957
2021-01-10 04:30:00           ,                 .03,                 .06,              1.0931
2021-01-10 05:30:00           ,                 .04,                 .08,              1.7337
2021-01-10 06:30:00           ,                 .07,                 .13,              2.0999
2021-01-10 07:30:01           ,                 .06,                 .12,              5.3448
2021-01-10 08:30:00           ,                 .11,                 .21,              5.2340
2021-01-10 09:30:00           ,                 .08,                 .17,              5.2075
2021-01-10 10:30:00           ,                 .13,                 .26,              7.8129
2021-01-10 11:30:00           ,                 .10,                 .20,              6.5200
2021-01-10 12:30:00           ,                 .15,                 .29,              7.5337
2021-01-10 13:30:00           ,                 .08,                 .17,              6.1507
2021-01-10 14:30:00           ,                 .07,                 .13,              5.8455
2021-01-10 15:30:00           ,                 .11,                 .22,              5.6558
2021-01-10 16:30:00           ,                 .10,                 .20,              7.3376
2021-01-10 17:30:00           ,                 .11,                 .22,              6.7087
2021-01-10 18:30:00           ,                 .16,                 .31,              5.6399
2021-01-10 19:30:00           ,                 .13,                 .27,              6.3717
2021-01-10 20:30:01           ,                 .16,                 .33,              5.0973
2021-01-10 21:30:00           ,                 .07,                 .14,              5.7427
2021-01-10 22:30:00           ,                 .04,                 .09,              3.5570
2021-01-10 23:30:00           ,                 .06,                 .12,              1.9960
2021-01-11 00:30:01           ,                 .08,                 .16,              3.4150
2021-01-11 01:30:00           ,                 .03,                 .06,              1.5186
2021-01-11 02:30:00           ,                 .03,                 .06,              1.0931
2021-01-11 03:30:00           ,                 .03,                 .06,              1.4116
2021-01-11 04:30:00           ,                 .04,                 .08,              1.4116
2021-01-11 05:30:00           ,                 .06,                 .11,              2.1004
2021-01-11 06:30:00           ,                 .07,                 .14,              9.5472
2021-01-11 07:30:00           ,                 .08,                 .16,              8.8408
2021-01-11 08:30:00           ,                 .09,                 .17,              7.1718
2021-01-11 09:30:00           ,                 .10,                 .19,              5.9409